Regional Weather Roundup
Issued by NWS

Home | Current Version | Previous Version | Text Only | Print | Product List | Glossary Off
Versions: 1 2 3 4 5 6 7 8 9 10 11 12 13 14 15 16 17 18 19 20 21 22 23 24 25 26 27 28 29 30 31 32 33 34 35 36 37 38 39 40 41 42 43 44 45 46 47 48 49 50

000
ASUS45 KABQ 230510
RWRNM
NEW MEXICO REGIONAL WEATHER ROUNDUP
NATIONAL WEATHER SERVICE ALBUQUERQUE NM
1100 PM MDT THU JUN 22 2017

NOTE: "FAIR" MEANS FEW OR NO CLOUDS BELOW 12,000 FEET AGL WITH NO
       SIGNIFICANT WEATHER OR OBSTRUCTIONS TO VISION.

      THIS PRODUCT IS RELEASED AS TWO VERSIONS.  ONE VERSION NEAR
      THE TOP OF THE HOUR CONTAINING PRELIMINARY DATA FROM ALBUQUERQUE
      AND OTHER STATIONS.  A FINAL VERSION WITH ADDITIONAL DATA IS
      ISSUED ABOUT 10 MINUTES AFTER THE HOUR.

NMZ501-503-504-510>518-230600-
NORTHWEST PLATEAU/NORTHCENTRAL MOUNTAINS

CITY           SKY/WX    TMP DP  RH WIND       PRES   REMARKS
FARMINGTON     FAIR      78  17  10 SW6       29.94R
LOS ALAMOS     FAIR      79  17  10 W7        30.13R
SANTA FE       FAIR      74  25  16 NE10      30.03R
TAOS           FAIR      61  25  25 E10       30.12R
ANGEL FIRE     FAIR      46  34  62 CALM      30.27R

$$
NMZ402-403-502-505>509-230600-
WESTCENTRAL MOUNTAINS/SOUTHWEST MOUNTAINS

CITY           SKY/WX    TMP DP  RH WIND       PRES   REMARKS
GALLUP         FAIR      67  23  19 CALM      30.09R
GRANTS         FAIR      72  19  13 N3        30.09R
SILVER CITY    FAIR      77  39  25 N7        30.00R

$$
NMZ407-409-411-412-230600-
SOUTHERN DESERTS

CITY           SKY/WX    TMP DP  RH WIND       PRES   REMARKS
DEMING         FAIR      87  39  18 W9        29.88R
LAS CRUCES     FAIR      87  34  14 NW10      29.87S
HOLLOMAN AFB   MOCLDY    95  39  14 SE8       29.85R
ALAMOGORDO     FAIR      88  41  19 S8        29.85R
T OR C         FAIR      91  31  11 NW8       29.90R

$$
NMZ519>523-230600-
CENTRAL VALLEYS/CENTRAL HIGHLANDS

CITY           SKY/WX    TMP DP  RH WIND       PRES   REMARKS
ALBUQUERQUE    FAIR      87  24  10 N7        29.94R
DOUBLE EAGLE   FAIR      77  23  13 NW10      29.99S
MORIARTY ARPT  FAIR      66  36  32 N6        30.03R
CLINES CORNERS FAIR      73  26  17 N8        30.09R
BELEN          FAIR      80  21  11 NW9       29.93R
SOCORRO        FAIR      91  24   9 NW13      29.89R

$$
NMZ524>526-539-540-230600-
SOUTHCENTRAL MOUNTAINS

CITY           SKY/WX    TMP DP  RH WIND       PRES   REMARKS
RUIDOSO        FAIR      75  37  25 SW9       30.12R

$$
NMZ527>531-230600-
NORTHEAST HIGHLANDS/NORTHEAST PLAINS

CITY           SKY/WX    TMP DP  RH WIND       PRES   REMARKS
LAS VEGAS      FAIR      70  35  27 N6        30.10R
RATON          FAIR      69  49  48 NE15G24   30.11R
CLAYTON        FAIR      67  57  70 N10       30.01R

$$
NMZ532>537-230600-
EASTCENTRAL PLAINS

CITY           SKY/WX    TMP DP  RH WIND       PRES   REMARKS
TUCUMCARI      FAIR      80  52  37 SE8       29.81R
CANNON AFB     FAIR      74  59  59 S3        29.86S
CLOVIS AIRPORT FAIR      73  59  61 S3        29.85S

$$
NMZ028-029-538-230600-
SOUTHEAST PLAINS

CITY           SKY/WX    TMP DP  RH WIND       PRES   REMARKS
ROSWELL        FAIR      89  46  22 S12       29.78F
ARTESIA        FAIR      90  50  25 SE5       29.81R
CARLSBAD       FAIR      89  52  28 E8        29.76R
HOBBS          FAIR      84  48  28 NE12      29.85S


$$




USA.gov is the U.S. government's official web portal to all federal, state and local government web resources and services.